Port Angeles, WA

11:22 AM PST on February 10, 2016 (GMT -0800)
Fairchild International

Weather History for KCLM - January, 2013

Change the Weather History Date:

Friday, January 18, 2013

  Actual Average Record
Temperature  
Mean Temperature 36 °F -  
Max Temperature 39 °F 47 °F 61 °F (2005)
Min Temperature 34 °F 35 °F 21 °F (1950)
Degree Days  
Heating Degree Days 28    
Moisture  
Dew Point 35 °F    
Average Humidity 92    
Maximum Humidity 100    
Minimum Humidity 86    
Precipitation  
Precipitation 0.00 in - - ()
Sea Level Pressure  
Sea Level Pressure 30.30 in    
Wind  
Wind Speed 6 mph (SSE)    
Max Wind Speed 8 mph    
Max Gust Speed -    
Visibility 7 miles    
Events Fog    
Averages and records for this station are not official NWS values.
T = Trace of Precipitation, MM = Missing Value Source: NWS Daily Summary

Daily Weather History Graph

Daily Weather History Graph

Search for Another Location

Airport or City:

Trip Planner

Search our weather history database for the weather conditions in past years. The results will help you decide how hot, cold, wet, or windy it might be!

Date:

Astronomy

Jan. 18, 2013 Rise Set
Actual Time 7:56 AM PST 4:52 PM PST
Civil Twilight 7:21 AM PST 5:27 PM PST
Nautical Twilight 6:43 AM PST 6:06 PM PST
Astronomical Twilight 6:06 AM PST 6:43 PM PST
Moon 10:59 AM PST (1/18) 12:25 AM PST (1/18)
Length of Visible Light 10h 05m
Length of Day
8h 56m
Waxing Crescent, 48% of the Moon is Illuminated
Jan 18
Waxing Crescent
Jan 18
First Quarter
Jan 26
Full
Feb 3
Last Quarter
Feb 9
New

Hourly Weather History & Observations

Time (PST) Temp. Windchill Dew Point Humidity Pressure Visibility Wind Dir Wind Speed Gust Speed Precip Events Conditions
12:05 AM 34.0 °F - 33.1 °F 96% 30.28 in 1.0 mi North - - N/A   Overcast
12:28 AM 35.1 °F - 33.1 °F 92% 30.28 in 1.2 mi North - - N/A   Overcast
12:50 AM 37.4 °F - 35.6 °F 93% 30.27 in 0.5 mi North - - N/A Fog Fog
12:53 AM 37.0 °F - 35.1 °F 93% 30.28 in 0.5 mi North - - N/A Fog Fog
1:53 AM 35.1 °F - 34.0 °F 96% 30.29 in 0.5 mi North - - N/A Fog Fog
2:19 AM 35.1 °F - 34.0 °F 96% 30.28 in 2.0 mi North - - N/A   Overcast
2:26 AM 35.1 °F - 34.0 °F 96% 30.29 in 7.0 mi North - - N/A   Overcast
2:53 AM 35.1 °F - 34.0 °F 96% 30.29 in 3.0 mi North - - N/A   Overcast
3:47 AM 35.6 °F - 35.6 °F 100% 30.26 in 2.5 mi North - - N/A   Overcast
3:53 AM 35.1 °F - 34.0 °F 96% 30.27 in 1.8 mi North - - N/A   Overcast
4:08 AM 35.1 °F - 34.0 °F 96% 30.26 in 0.5 mi North - - N/A Fog Fog
4:29 AM 35.1 °F - 34.0 °F 96% 30.26 in 1.0 mi North - - N/A   Overcast
4:41 AM 35.1 °F - 34.0 °F 96% 30.27 in 3.0 mi North - - N/A   Overcast
4:53 AM 35.1 °F - 34.0 °F 96% 30.29 in 8.0 mi North - - N/A   Overcast
5:53 AM 36.0 °F - 35.1 °F 97% 30.28 in 8.0 mi North - - N/A   Overcast
6:53 AM 35.1 °F 30.1 °F 33.1 °F 92% 30.26 in 7.0 mi SW 5.8 mph - N/A   Overcast
7:50 AM 35.6 °F 29.9 °F 33.8 °F 93% 30.27 in 10.0 mi SSW 6.9 mph - N/A   Overcast
7:53 AM 36.0 °F 30.3 °F 34.0 °F 93% 30.28 in 10.0 mi South 6.9 mph - N/A   Overcast
8:53 AM 37.0 °F 32.4 °F 34.0 °F 89% 30.30 in 10.0 mi South 5.8 mph - N/A   Overcast
9:53 AM 37.9 °F 35.5 °F 36.0 °F 93% 30.31 in 10.0 mi SSE 3.5 mph - N/A   Overcast
10:53 AM 37.9 °F 33.5 °F 36.0 °F 93% 30.31 in 10.0 mi SSE 5.8 mph - N/A   Overcast
11:53 AM 39.0 °F 34.0 °F 36.0 °F 89% 30.32 in 10.0 mi SE 6.9 mph - N/A   Overcast
12:53 PM 39.0 °F 34.0 °F 36.0 °F 89% 30.32 in 10.0 mi SE 6.9 mph - N/A   Overcast
1:53 PM 39.9 °F 35.1 °F 36.0 °F 86% 30.30 in 10.0 mi East 6.9 mph - N/A   Overcast
2:53 PM 39.9 °F 35.1 °F 36.0 °F 86% 30.31 in 10.0 mi SE 6.9 mph - N/A   Overcast
3:53 PM 39.0 °F 36.8 °F 36.0 °F 89% 30.32 in 10.0 mi SE 3.5 mph - N/A   Overcast
4:53 PM 37.9 °F 33.5 °F 35.1 °F 89% 30.32 in 10.0 mi SE 5.8 mph - N/A   Overcast
5:53 PM 37.9 °F 34.4 °F 35.1 °F 89% 30.32 in 10.0 mi SSE 4.6 mph - N/A   Overcast
6:53 PM 37.9 °F 33.5 °F 35.1 °F 89% 30.31 in 10.0 mi SE 5.8 mph - N/A   Overcast
7:53 PM 37.0 °F 31.6 °F 35.1 °F 93% 30.32 in 10.0 mi SSE 6.9 mph - N/A   Overcast
8:53 PM 37.0 °F 31.0 °F 34.0 °F 89% 30.33 in 10.0 mi SSE 8.1 mph - N/A   Overcast
9:53 PM 37.9 °F 32.1 °F 34.0 °F 86% 30.34 in 10.0 mi SSE 8.1 mph - N/A   Overcast
10:53 PM 37.9 °F 33.5 °F 34.0 °F 86% 30.34 in 10.0 mi SSE 5.8 mph - N/A   Overcast
11:15 PM 37.9 °F 32.1 °F 34.0 °F 86% 30.34 in 10.0 mi SE 8.1 mph - N/A   Overcast
11:53 PM 37.9 °F 32.7 °F 34.0 °F 86% 30.35 in 10.0 mi SE 6.9 mph - N/A   Overcast